EW8830 Weather Reports


Display with metric or nautical units.
time (UTC)temp
F
wind
direction
speed
MPH
gust
MPH
rain 1hr
in
rain 24hr
in
rain mn
in
humidity
%
barometer
mb
20260506005504 56 0 0.0 0.0 0.19 0.21 0.21 90 1007.5
20260506004504 56 334 0.0 13.0 0.17 0.19 0.19 89 1007.8
20260506003503 58 12 0.0 3.0 0.15 0.17 0.17 89 1007.5
20260506003004 59 102 0.0 1.0 0.10 0.12 0.12 88 1007.8
20260506002503 60 284 0.0 3.0 0.03 0.05 0.05 87 1007.7
20260506001504 61 332 0.0 5.0 0.03 0.05 0.05 87 1006.8
20260506001004 61 0 0.0 0.0 0.02 0.04 0.04 86 1006.8
20260506000504 62 0 0.0 0.0 0.00 0.02 0.02 85 1007.0
20260506000004 62 343 0.0 1.0 0.00 0.02 0.02 84 1006.6
20260505235503 62 329 0.0 5.0 0.00 0.02 0.02 84 1006.6
20260505235003 63 321 0.0 5.0 0.00 0.02 0.02 82 1006.6
20260505234503 63 0 0.0 0.0 0.00 0.02 0.02 81 1006.5
20260505233504 64 0 0.0 0.0 0.00 0.02 0.02 79 1006.6
20260505233004 64 0 0.0 0.0 0.00 0.02 0.02 78 1006.5
20260505232504 64 0 0.0 0.0 0.00 0.02 0.02 77 1006.3
20260505232004 64 0 0.0 0.0 0.00 0.02 0.02 77 1006.5
20260505231504 64 0 0.0 0.0 0.00 0.02 0.02 76 1006.5
20260505231003 65 0 0.0 0.0 0.00 0.02 0.02 75 1006.6
20260505230503 65 0 0.0 0.0 0.00 0.02 0.02 75 1006.3
20260505230003 65 0 0.0 0.0 0.00 0.02 0.02 75 1006.6
20260505225504 65 0 0.0 0.0 0.00 0.02 0.02 75 1006.8
20260505225003 65 0 0.0 0.0 0.00 0.02 0.02 75 1006.9
20260505224503 65 0 0.0 0.0 0.00 0.02 0.02 76 1006.8
20260505224004 65 0 0.0 0.0 0.00 0.02 0.02 75 1007.0
20260505223504 65 0 0.0 0.0 0.00 0.02 0.02 76 1006.9
20260505223004 65 0 0.0 0.0 0.00 0.02 0.02 76 1006.9
20260505222504 65 0 0.0 0.0 0.00 0.02 0.02 77 1007.0
20260505221503 65 0 0.0 0.0 0.00 0.02 0.02 77 1006.9
20260505221003 65 0 0.0 0.0 0.00 0.02 0.02 77 1006.8
20260505220503 65 0 0.0 0.0 0.01 0.02 0.02 76 1006.8
20260505220003 64 0 0.0 0.0 0.01 0.02 0.02 77 1006.8
20260505215503 65 0 0.0 0.0 0.01 0.02 0.02 76 1006.8
20260505215003 65 0 0.0 0.0 0.01 0.02 0.02 75 1006.8
20260505214503 64 0 0.0 0.0 0.01 0.02 0.02 75 1006.8
20260505214004 64 0 0.0 0.0 0.01 0.02 0.02 76 1006.9
20260505213504 64 0 0.0 0.0 0.01 0.02 0.02 76 1006.9
20260505213004 64 0 0.0 0.0 0.01 0.02 0.02 76 1006.9
20260505212504 64 0 0.0 0.0 0.01 0.02 0.02 74 1006.9
20260505212003 65 0 0.0 0.0 0.01 0.02 0.02 74 1006.9
20260505211503 65 0 0.0 0.0 0.01 0.02 0.02 74 1007.0
20260505211003 65 0 0.0 0.0 0.01 0.02 0.02 71 1007.0
20260505210503 66 0 0.0 0.0 0.00 0.01 0.01 71 1007.0
20260505210003 66 0 0.0 0.0 0.00 0.01 0.01 69 1006.8
20260505205003 67 0 0.0 0.0 0.00 0.01 0.01 64 1006.9
20260505204503 68 0 0.0 0.0 0.00 0.01 0.01 60 1006.7
20260505204003 69 0 0.0 0.0 0.00 0.01 0.01 58 1006.5
20260505203503 70 0 0.0 0.0 0.00 0.01 0.01 57 1006.7
20260505201003 69 0 0.0 0.0 0.00 0.01 0.01 56 1006.6
20260505200503 69 0 0.0 0.0 0.00 0.01 0.01 56 1006.6
20260505200003 69 0 0.0 0.0 0.00 0.01 0.01 56 1006.6
20260505195003 69 245 0.0 10.0 0.00 0.01 0.01 55 1006.9
20260505194503 69 245 0.0 10.0 0.00 0.01 0.01 55 1006.9
20260505194003 69 280 0.0 3.0 0.00 0.01 0.01 56 1007.0
20260505193503 69 271 0.0 3.0 0.00 0.01 0.01 56 1007.1
20260505193004 69 278 0.0 5.0 0.00 0.01 0.01 55 1007.2
20260505192504 69 274 0.0 6.0 0.00 0.01 0.01 56 1007.3
20260505191003 69 245 0.0 10.0 0.00 0.01 0.01 55 1007.4
20260505190503 69 229 0.0 13.0 0.00 0.01 0.01 54 1007.4
20260505190004 70 259 2.0 22.0 0.00 0.01 0.01 53 1007.4
20260505185503 70 262 1.0 22.0 0.00 0.01 0.01 53 1007.4
20260505184503 70 270 0.0 7.0 0.00 0.01 0.01 52 1007.2
20260505184003 70 268 1.0 11.0 0.00 0.01 0.01 52 1007.1
20260505183504 70 267 1.0 16.0 0.00 0.01 0.01 52 1007.0
20260505182503 71 249 0.0 5.0 0.00 0.01 0.01 52 1007.0
20260505182003 71 271 0.0 5.0 0.00 0.01 0.01 52 1006.9
20260505181503 71 228 0.0 12.0 0.00 0.01 0.01 53 1006.9
20260505181004 71 234 0.0 12.0 0.00 0.01 0.01 52 1007.0
20260505180504 71 289 0.0 7.0 0.00 0.01 0.01 52 1007.0
20260505180004 71 277 0.0 9.0 0.00 0.01 0.01 52 1007.0
20260505175504 71 273 0.0 9.0 0.00 0.01 0.01 52 1007.0
20260505175003 70 280 0.0 14.0 0.00 0.01 0.01 52 1007.0
20260505174503 70 264 1.0 14.0 0.00 0.01 0.01 53 1006.9
20260505174004 70 262 2.0 14.0 0.00 0.01 0.01 52 1006.9
20260505173504 71 263 1.0 12.0 0.00 0.01 0.01 51 1006.8
20260505173004 71 274 0.0 13.0 0.00 0.01 0.01 51 1006.9
20260505172504 71 287 0.0 13.0 0.00 0.01 0.01 50 1006.8
20260505172003 71 253 0.0 5.0 0.00 0.01 0.01 52 1006.8
20260505171003 71 263 2.0 18.0 0.00 0.01 0.01 53 1006.9
20260505170504 72 255 2.0 18.0 0.00 0.01 0.01 51 1006.9
20260505170004 72 253 1.0 17.0 0.00 0.01 0.01 51 1006.9
20260505165504 72 264 1.0 17.0 0.00 0.01 0.01 52 1006.9
20260505165004 71 262 0.0 12.0 0.00 0.01 0.01 53 1006.8
20260505164504 71 253 1.0 15.0 0.00 0.01 0.01 54 1006.9
20260505164003 70 239 2.0 15.0 0.00 0.01 0.01 54 1007.1
20260505163503 70 254 2.0 17.0 0.00 0.01 0.01 54 1006.9
20260505162503 70 252 1.0 10.0 0.00 0.01 0.01 55 1006.8
20260505162003 70 258 1.0 14.0 0.00 0.01 0.01 55 1006.7
20260505161004 70 263 2.0 22.0 0.00 0.01 0.01 56 1006.8
20260505160504 69 261 1.0 22.0 0.00 0.01 0.01 57 1006.8
20260505152504 68 238 1.0 17.0 0.01 0.01 0.01 61 1007.2
20260505152004 68 264 1.0 18.0 0.01 0.01 0.01 62 1007.2
20260505151504 67 270 3.0 19.0 0.01 0.01 0.01 63 1007.0
20260505151004 67 268 2.0 19.0 0.01 0.01 0.01 62 1007.1
20260505140504 64 172 0.0 4.0 0.00 0.00 0.00 70 1006.8
20260505125004 66 193 0.0 9.0 0.00 0.00 0.00 61 1006.5
20260505124503 66 231 0.0 7.0 0.00 0.00 0.00 61 1006.5
20260505124003 66 217 0.0 8.0 0.00 0.00 0.00 61 1006.6
20260505123503 65 199 0.0 8.0 0.00 0.00 0.00 61 1006.6
20260505123003 65 264 0.0 7.0 0.00 0.00 0.00 62 1006.4
20260505122503 65 232 0.0 7.0 0.00 0.00 0.00 62 1006.6
20260505122004 65 223 0.0 7.0 0.00 0.00 0.00 62 1006.5
20260505121504 65 238 0.0 8.0 0.00 0.00 0.00 62 1006.4
20260505121004 65 226 0.0 8.0 0.00 0.00 0.00 62 1006.5
20260505120503 65 169 0.0 8.0 0.00 0.00 0.00 63 1006.5
20260505120004 64 187 0.0 8.0 0.00 0.00 0.00 63 1006.6
20260505115503 64 258 0.0 6.0 0.00 0.00 0.00 63 1006.5
20260505115003 64 202 0.0 7.0 0.00 0.00 0.00 64 1006.4
20260505114503 64 204 0.0 7.0 0.00 0.00 0.00 63 1006.4
20260505114003 64 235 0.0 1.0 0.00 0.00 0.00 64 1006.3
20260505113504 64 0 0.0 0.0 0.00 0.00 0.00 64 1006.4
20260505113004 64 142 0.0 6.0 0.00 0.00 0.00 64 1006.4
20260505112503 64 142 0.0 6.0 0.00 0.00 0.00 64 1006.3
20260505112003 64 0 0.0 0.0 0.00 0.00 0.00 64 1006.2
20260505111503 64 0 0.0 0.0 0.00 0.00 0.00 63 1006.2
20260505110503 64 241 0.0 1.0 0.00 0.00 0.00 63 1006.1
20260505102004 65 263 0.0 8.0 0.00 0.00 0.00 62 1005.4
20260505101503 65 228 0.0 7.0 0.00 0.00 0.00 62 1005.3
20260505101004 64 243 0.0 1.0 0.00 0.00 0.00 62 1005.4
20260505100504 64 223 0.0 2.0 0.00 0.00 0.00 62 1005.3
20260505095503 65 220 0.0 2.0 0.00 0.00 0.00 62 1005.3
20260505095004 65 211 0.0 3.0 0.00 0.00 0.00 62 1005.2
20260505094504 65 247 0.0 3.0 0.00 0.00 0.00 62 1005.1
20260505094004 65 278 0.0 2.0 0.00 0.00 0.00 61 1005.1
20260505093504 65 300 0.0 3.0 0.00 0.00 0.00 61 1005.0
20260505093003 65 297 0.0 3.0 0.00 0.00 0.00 61 1005.1
20260505092503 65 171 0.0 4.0 0.00 0.00 0.00 61 1005.0
20260505091503 66 275 0.0 3.0 0.00 0.00 0.00 60 1004.9
20260505090004 65 168 0.0 3.0 0.00 0.00 0.00 62 1005.0
20260505085003 65 165 0.0 7.0 0.00 0.00 0.00 62 1004.9
20260505084503 65 166 0.0 7.0 0.00 0.00 0.00 62 1004.8
20260505084004 65 173 0.0 7.0 0.00 0.00 0.00 63 1004.7
20260505083503 65 219 0.0 3.0 0.00 0.00 0.00 63 1004.6
20260505083004 65 231 0.0 2.0 0.00 0.00 0.00 63 1004.6
20260505082504 65 163 0.0 3.0 0.00 0.00 0.00 63 1004.5
20260505082004 65 163 0.0 3.0 0.00 0.00 0.00 63 1004.5
20260505081503 64 229 0.0 4.0 0.00 0.00 0.00 63 1004.4
20260505081003 65 217 0.0 4.0 0.00 0.00 0.00 63 1004.3
20260505080004 65 181 0.0 10.0 0.00 0.00 0.00 62 1004.3
20260505075503 65 166 0.0 10.0 0.00 0.00 0.00 62 1004.3
20260505074504 65 203 0.0 7.0 0.00 0.00 0.00 62 1004.3
20260505074004 64 214 0.0 4.0 0.00 0.00 0.00 63 1004.3
20260505073504 64 204 0.0 11.0 0.00 0.00 0.00 63 1004.2
20260505073004 64 207 0.0 11.0 0.00 0.00 0.00 63 1004.2
20260505071503 64 233 0.0 5.0 0.00 0.00 0.00 63 1004.1
20260505070503 65 152 0.0 1.0 0.00 0.00 0.00 62 1004.3
20260505070004 65 152 0.0 1.0 0.00 0.00 0.00 62 1004.2
20260505065504 65 0 0.0 0.0 0.00 0.00 0.00 62 1004.2
20260505064503 65 227 0.0 1.0 0.00 0.00 0.00 62 1004.2
20260505064004 65 227 0.0 1.0 0.00 0.00 0.00 61 1004.3
20260505063504 65 0 0.0 0.0 0.00 0.00 0.00 61 1004.4
20260505062504 66 171 0.0 8.0 0.00 0.00 0.00 61 1004.4
20260505062003 66 174 0.0 7.0 0.00 0.00 0.00 61 1004.6
20260505061503 66 184 0.0 7.0 0.00 0.00 0.00 61 1004.7
20260505060504 66 0 0.0 0.0 0.00 0.00 0.00 61 1004.8
20260505060004 66 0 0.0 0.0 0.00 0.00 0.00 61 1004.9
20260505055503 66 175 0.0 9.0 0.00 0.00 0.00 61 1004.9
20260505055003 65 175 0.0 9.0 0.00 0.00 0.00 61 1004.9
20260505054503 65 0 0.0 0.0 0.00 0.00 0.00 61 1005.0
20260505053004 65 150 0.0 7.0 0.00 0.00 0.00 61 1005.2
20260505052504 65 167 0.0 7.0 0.00 0.00 0.00 61 1005.2
20260505052004 65 191 0.0 6.0 0.00 0.00 0.00 61 1005.2
20260505051504 65 181 0.0 6.0 0.00 0.00 0.00 61 1005.3
20260505051003 65 164 0.0 8.0 0.00 0.00 0.00 61 1005.4
20260505050503 65 164 0.0 8.0 0.00 0.00 0.00 62 1005.3
20260505041504 65 174 0.0 5.0 0.00 0.00 0.00 61 1005.5
20260505041004 65 165 0.0 5.0 0.00 0.00 0.00 61 1005.5
20260505040504 65 168 0.0 6.0 0.00 0.00 0.00 61 1005.4
20260505040005 65 179 0.0 6.0 0.00 0.00 0.00 60 1005.4
20260505035504 65 131 0.0 3.0 0.00 0.00 0.00 60 1005.4
20260505035004 65 134 0.0 3.0 0.00 0.00 0.00 60 1005.5
20260505033503 65 204 0.0 7.0 0.00 0.00 0.00 59 1005.4
20260505033004 65 197 0.0 7.0 0.00 0.00 0.00 59 1005.4
20260505032504 65 160 0.0 6.0 0.00 0.00 0.00 59 1005.4
20260505032004 66 155 0.0 6.0 0.00 0.00 0.00 58 1005.4
20260505031503 66 85 0.0 1.0 0.00 0.00 0.00 58 1005.4
20260505031003 66 303 0.0 1.0 0.00 0.00 0.00 58 1005.5
20260505030503 66 303 0.0 1.0 0.00 0.00 0.00 57 1005.5
20260505030004 66 0 0.0 0.0 0.00 0.00 0.00 57 1005.6
20260505025503 66 0 0.0 0.0 0.00 0.00 0.00 57 1005.6
20260505025004 66 132 0.0 5.0 0.00 0.00 0.00 56 1005.7
20260505024004 66 51 0.0 1.0 0.00 0.00 0.00 55 1005.8
20260505023504 67 0 0.0 0.0 0.00 0.00 0.00 55 1005.8
20260505023003 67 0 0.0 0.0 0.00 0.00 0.00 54 1005.9
20260505022503 67 0 0.0 0.0 0.00 0.00 0.00 54 1005.9
20260505020504 68 0 0.0 0.0 0.00 0.00 0.00 52 1005.8
20260505020003 68 261 0.0 9.0 0.00 0.00 0.00 52 1005.9
20260505015503 68 236 0.0 9.0 0.00 0.00 0.00 52 1005.9
20260505015003 68 189 0.0 8.0 0.00 0.00 0.00 51 1005.7
20260505014503 68 147 0.0 2.0 0.00 0.00 0.00 51 1005.8
20260505014004 69 248 0.0 2.0 0.00 0.00 0.00 51 1005.7
20260505013504 68 261 0.0 12.0 0.00 0.00 0.00 51 1005.6
20260505012003 69 172 0.0 8.0 0.00 0.00 0.00 51 1005.5
20260505011503 69 167 0.0 8.0 0.00 0.00 0.00 51 1005.2
20260505011003 69 266 0.0 1.0 0.00 0.00 0.00 51 1005.2
20260505010004 69 189 0.0 7.0 0.00 0.00 0.00 50 1005.1